Home   Weather   Oakville   Past weeks

Flag for Canada Past Weather in Oakville, Ontario, Canada — Yesterday and Last 2 Weeks

Now
35 °F

Chilly.


Feels Like: 35 °F
Forecast: 33 / 36 °F
Wind: 1 mph from West

Location: Burlington Piers

Current Time: Jan 16, 2017 at 8:04:51 pm

Latest Report: Jan 16, 2017 at 7:00 pm


Visibility: N/A

Pressure: 30.27 "Hg

Humidity: 71%

Dew Point: 26 °F

Location of OakvilleLocation

Past Weather in Oakville — Graph

°F

Oakville Temperature Yesterday

Maximum temperature yesterday: 33 °F (at 4:00 pm)
Minimum temperature yesterday: 25 °F (at 4:00 am)
Average temperature yesterday: 29 °F

High & Low Weather Summary for the Past Weeks

 TemperatureHumidityPressure
High54 °F (Jan 12, 5:00 am)100% (Jan 3, 3:00 pm)30.80 "Hg (Jan 3, 3:00 pm)
Low11 °F (Jan 7, 7:00 am)41% (Jan 8, 2:00 pm)29.45 "Hg (Jan 4, 2:00 am)
Average28 °F71%30.16 "Hg
* Reported Jan 1 7:00 pm — Jan 16 7:00 pm, Oakville, Weather by CustomWeather, © 2017

Note: Actual official high and low records may vary slightly from our data, if they occured in-between our weather recording intervals... More about our weather records

Advertising

Oakville Weather History for the Previous 24 Hours

Scroll right to see more
 ConditionsComfort  
Time TempWeatherWind HumidityBarometerVisibility
7:00 pm
Mon, Jan 16
35 °FChilly.1 mph71%30.27 "HgN/A
6:00 pm37 °FChilly.5 mph64%30.27 "HgN/A
5:00 pm36 °FChilly.6 mph61%30.28 "HgN/A
4:00 pm36 °FChilly.3 mph62%30.28 "HgN/A
3:00 pm35 °FChilly.5 mph65%30.29 "HgN/A
2:00 pm35 °FChilly.5 mph64%30.30 "HgN/A
1:00 pm34 °FChilly.6 mph65%30.32 "HgN/A
12:00 pm31 °FChilly.7 mph72%30.34 "HgN/A
11:00 am33 °FChilly.7 mph66%30.37 "HgN/A
10:00 am28 °FChilly.7 mph77%30.38 "HgN/A
9:00 am27 °FChilly.7 mph76%30.38 "HgN/A
8:00 am27 °FChilly.6 mph79%30.37 "HgN/A
7:00 am26 °FChilly.6 mph79%30.37 "HgN/A
6:00 am26 °FChilly.5 mph79%30.36 "HgN/A
5:00 am26 °FChilly.5 mph82%30.36 "HgN/A
4:00 am26 °FChilly.5 mph84%30.37 "HgN/A
3:00 am26 °FChilly.5 mph85%30.37 "HgN/A
2:00 am27 °FChilly.3 mph82%30.37 "HgN/A
1:00 am28 °FChilly.5 mph80%30.37 "HgN/A
12:00 am27 °FChilly.3 mph82%30.38 "HgN/A
11:00 pm
Sun, Jan 15
29 °FChilly.5 mph79%30.38 "HgN/A
10:00 pm29 °FChilly.6 mph75%30.38 "HgN/A
9:00 pm30 °FChilly.5 mph76%30.39 "HgN/A
8:00 pm30 °FChilly.7 mph74%30.38 "HgN/A
Weather by CustomWeather, © 2017

See weather overviewHow to use our weather pages